Вернуться в каталог

DELTA 1 DEB

АктивенSSO
NORAD 13525·DEBRIS·🇺🇸 United States

Запущен Nov 6, 1973 с Vandenberg Space Force Base

Loading…

Ближайшие Пролёты (ближайшие 24 часа)

TLE

СвежийSource: Space-Track

Эпоха: Sep 14, 2026, 09:41 UTC

1 13525U 73086GN  26257.40367861  .00000000  00000-0  29397-3 0  9990
2 13525 101.9588 236.0689 0076900 178.7802 341.2977 12.51234089108006

Отслеживайте DELTA 1 DEB в реальном времени с AllMySat

Download on the App Store